Regional Weather Roundup
Issued by NWS

Home | Current Version | Previous Version | Graphics & Text | Print | Product List | Glossary On
Versions: 1 2 3 4 5 6 7 8 9 10 11 12 13 14 15 16 17 18 19 20 21 22 23 24 25 26 27 28 29 30 31 32 33 34 35 36 37 38 39 40 41 42 43 44 45 46 47 48 49 50
000
ASUS43 KOAX 212202
RWRNE

WEATHER ROUNDUP FOR NEBRASKA
NATIONAL WEATHER SERVICE OMAHA NE
500 PM CDT SUN MAY 21 2017

NOTES: SATELLITE DATA IS BEING USED TO AUGMENT CLOUD COVER ABOVE
       12000 FEET.
       "FAIR" INDICATES FEW OR NO CLOUDS BELOW 12,000 FEET WITH NO
       SIGNIFICANT WEATHER AND/OR OBSTRUCTIONS TO VISIBILITY.

  * THESE STATIONS DO NOT REPORT WEATHER SUCH AS RAIN...SNOW OR FOG.

NEZ001>004-019>022-054>056-212300-
NEBRASKA PANHANDLE

CITY           SKY/WX    TMP DP  RH WIND       PRES   REMARKS
SCOTTSBLUFF    CLOUDY    55  32  41 W9        30.14F
ALLIANCE       CLOUDY    56  45  66 SW9       30.12F
CHADRON        SUNNY     65  39  38 NW17G25   30.08S
GORDON         FAIR      64  39  40 W12       30.07F
KIMBALL        CLOUDY    62  37  40 NW9       30.15S
SIDNEY         LGT RAIN  56  47  71 NE10      30.14S
$$

NEZ057>060-069>072-079>082-212300-
SOUTHWEST NEBRASKA

CITY           SKY/WX    TMP DP  RH WIND       PRES   REMARKS
NORTH PLATTE   SUNNY     67  40  37 NW12      30.08F
IMPERIAL       CLOUDY    67  42  40 N8        30.10F
LEXINGTON      MOSUNNY   69  39  33 NW14      30.08F
MCCOOK         SUNNY     73  42  32 NW13      30.09F
OGALLALA       CLOUDY    66  43  42 N15       30.11S
$$

NEZ005>010-023>029-035>040-094-212300-
NORTH CENTRAL NEBRASKA

CITY           SKY/WX    TMP DP  RH WIND       PRES   REMARKS
VALENTINE      MOSUNNY   70  32  24 W10       30.03F
AINSWORTH      MOSUNNY   67  37  33 NW10G22   30.05S
BROKEN BOW     SUNNY     68  40  35 NW14      30.07F
O`NEILL        SUNNY     65  32  29 NW9G17    30.05F
ORD            SUNNY     67  35  30 NW13      30.05
THEDFORD       SUNNY     68  37  31 N7        30.08S
$$

NEZ041-046>049-061>064-073>077-083>087-212300-
SOUTH CENTRAL NEBRASKA

CITY           SKY/WX    TMP DP  RH WIND       PRES   REMARKS
GRAND ISLAND   SUNNY     70  38  31 NW12G23   30.07F
AURORA         SUNNY     69  38  32 NW16      30.07F
HASTINGS       SUNNY     70  40  33 W10       30.08F
HEBRON         SUNNY     69  41  35 NW6       30.08F
HOLDREGE       SUNNY     69  38  32 NW8       30.08F
KEARNEY *      SUNNY     70  37  30 NW12      30.08F
YORK           SUNNY     68  41  37 W10       30.07F
$$

NEZ011>018-030>034-042>045-212300-
NORTHEAST NEBRASKA

CITY           SKY/WX    TMP DP  RH WIND       PRES   REMARKS
NORFOLK        MOSUNNY   64  39  39 NW14G23   30.05F
ALBION         SUNNY     66  39  36 NW10G23   30.06F
BLAIR          MOSUNNY   65  42  41 W14G23    30.05S
FREMONT        SUNNY     66  42  41 W18G24    30.06F
TEKAMAH        SUNNY     64  46  52 NW20G28   30.05S
WAYNE          PTSUNNY   64  43  46 NW13G24   30.05S
$$

NEZ050>053-065>068-078-088>093-212300-
SOUTHEAST NEBRASKA

CITY           SKY/WX    TMP DP  RH WIND       PRES   REMARKS
LINCOLN        SUNNY     70  38  31 W13G24    30.07F
OMAHA EPPLEY   MOSUNNY   65  41  41 NW14G28   30.05S
BEATRICE       SUNNY     69  43  39 NW12G18   30.08F
FALLS CITY     SUNNY     68  41  37 W15G25    30.07F
NEBRASKA CITY  MOSUNNY   67  36  31 NW21      30.08S
PLATTSMOUTH    MOSUNNY   67  36  31 W15       30.06F
$$

NEZ044-045-051>053-067-212300-
OMAHA AREA

CITY           SKY/WX    TMP DP  RH WIND       PRES   REMARKS
OMAHA EPPLEY   MOSUNNY   65  41  41 NW14G28   30.05S
BLAIR          MOSUNNY   65  42  41 W14G23    30.05S
FREMONT        SUNNY     66  42  41 W18G24    30.06F
MILLARD        MOSUNNY   68  43  40 NW16      30.06S
PLATTSMOUTH    MOSUNNY   67  36  31 W15       30.06F
WAHOO          FAIR      67  37  32 NW20G25   30.06F
$$




USA.gov is the U.S. government's official web portal to all federal, state and local government web resources and services.